Location: Bennemühlen
(52.5740°N, 9.7135°E)
Time: 11:56:45
(UTC+00:00)

A-11 Canister half - Pass Details

Date: 25 February 2026
Orbit: 1513 x 1686 km, 47.2° (Epoch: 17 March)

Event Time Altitude Azimuth Distance (km) Brightness Sun altitude
Rises 15:46:58 0° 169° (S) 4,916 11.9 8.5°
Reaches altitude 10° 15:53:11 10° 141° (SE) 3,945 11.0 7.6°
Maximum altitude 15:56:16 12° 122° (ESE) 3,806 10.8 7.2°
Drops below altitude 10° 15:59:22 10° 104° (ESE) 3,949 10.7 6.8°
Sets 16:05:31 0° 77° (ENE) 4,927 11.0 5.9°
